Year,Month,Day,Hour,Minute,Value (Times are PST for temperature in C)
2015,07,19,00,00,16.40
2015,07,19,00,01,16.40
2015,07,19,00,02,16.40
2015,07,19,00,03,16.40
2015,07,19,00,04,16.40
2015,07,19,00,05,16.40
2015,07,19,00,06,16.40
2015,07,19,00,07,16.40
2015,07,19,00,08,16.40
2015,07,19,00,09,16.40
2015,07,19,00,10,16.40
2015,07,19,00,11,16.40
2015,07,19,00,12,16.40
2015,07,19,00,13,16.40
2015,07,19,00,14,16.40
2015,07,19,00,15,16.30
2015,07,19,00,16,16.30
2015,07,19,00,17,16.30
2015,07,19,00,18,16.30
2015,07,19,00,19,16.30
2015,07,19,00,20,16.30
2015,07,19,00,21,16.20
2015,07,19,00,22,16.20
2015,07,19,00,23,16.20
2015,07,19,00,24,16.20
2015,07,19,00,25,16.20
2015,07,19,00,26,16.20
2015,07,19,00,27,16.20
2015,07,19,00,28,16.20
2015,07,19,00,29,16.20
2015,07,19,00,30,16.20
2015,07,19,00,31,16.10
2015,07,19,00,32,16.10
2015,07,19,00,33,16.10
2015,07,19,00,34,16.10
2015,07,19,00,35,16.10
2015,07,19,00,36,16.00
2015,07,19,00,37,16.00
2015,07,19,00,38,16.00
2015,07,19,00,39,16.00
2015,07,19,00,40,16.00
2015,07,19,00,41,16.00
2015,07,19,00,42,16.00
2015,07,19,00,43,16.00
2015,07,19,00,44,16.00
2015,07,19,00,45,16.00
2015,07,19,00,46,16.00
2015,07,19,00,47,16.00
2015,07,19,00,48,16.00
2015,07,19,00,49,15.90
2015,07,19,00,50,15.90
2015,07,19,00,51,15.90
2015,07,19,00,52,16.00
2015,07,19,00,53,15.90
2015,07,19,00,54,15.90
2015,07,19,00,55,15.90
2015,07,19,00,56,15.90
2015,07,19,00,57,15.90
2015,07,19,00,58,15.90
2015,07,19,00,59,15.90
2015,07,19,01,00,15.90
2015,07,19,01,01,15.90
2015,07,19,01,02,15.90
2015,07,19,01,03,15.90
2015,07,19,01,04,15.90
2015,07,19,01,05,15.90
2015,07,19,01,06,15.90
2015,07,19,01,07,15.90
2015,07,19,01,08,15.90
2015,07,19,01,09,15.90
2015,07,19,01,10,15.90
2015,07,19,01,11,15.90
2015,07,19,01,12,15.90
2015,07,19,01,13,16.00
2015,07,19,01,14,16.00
2015,07,19,01,15,16.00
2015,07,19,01,16,16.10
2015,07,19,01,17,16.10
2015,07,19,01,18,16.10
2015,07,19,01,19,16.10
2015,07,19,01,20,16.20
2015,07,19,01,21,16.20
2015,07,19,01,22,16.10
2015,07,19,01,23,16.10
2015,07,19,01,24,16.20
2015,07,19,01,25,16.20
2015,07,19,01,26,16.20
2015,07,19,01,27,16.20
2015,07,19,01,28,16.20
2015,07,19,01,29,16.20
2015,07,19,01,30,16.20
2015,07,19,01,31,16.20
2015,07,19,01,32,16.20
2015,07,19,01,33,16.20
2015,07,19,01,34,16.20
2015,07,19,01,35,16.20
2015,07,19,01,36,16.20
2015,07,19,01,37,16.10
2015,07,19,01,38,16.10
2015,07,19,01,39,16.10
2015,07,19,01,40,16.10
2015,07,19,01,41,16.10
2015,07,19,01,42,16.10
2015,07,19,01,43,16.10
2015,07,19,01,44,16.10
2015,07,19,01,45,16.10
2015,07,19,01,46,16.10
2015,07,19,01,47,16.10
2015,07,19,01,48,16.10
2015,07,19,01,49,16.10
2015,07,19,01,50,16.10
2015,07,19,01,51,16.00
2015,07,19,01,52,16.10
2015,07,19,01,53,16.10
2015,07,19,01,54,16.10
2015,07,19,01,55,16.10
2015,07,19,01,56,16.10
2015,07,19,01,57,16.10
2015,07,19,01,58,16.10
2015,07,19,01,59,16.10
2015,07,19,02,00,16.10
2015,07,19,02,01,16.10
2015,07,19,02,02,16.10
2015,07,19,02,03,16.10
2015,07,19,02,04,16.10
2015,07,19,02,05,16.10
2015,07,19,02,06,16.10
2015,07,19,02,07,16.00
2015,07,19,02,08,16.00
2015,07,19,02,09,16.00
2015,07,19,02,10,15.90
2015,07,19,02,11,15.90
2015,07,19,02,12,15.90
2015,07,19,02,13,15.80
2015,07,19,02,14,15.80
2015,07,19,02,15,15.80
2015,07,19,02,16,15.80
2015,07,19,02,17,15.80
2015,07,19,02,18,15.80
2015,07,19,02,19,15.80
2015,07,19,02,20,15.80
2015,07,19,02,21,15.70
2015,07,19,02,22,15.70
2015,07,19,02,23,15.70
2015,07,19,02,24,15.70
2015,07,19,02,25,15.80
2015,07,19,02,26,15.80
2015,07,19,02,27,15.80
2015,07,19,02,28,15.80
2015,07,19,02,29,15.80
2015,07,19,02,30,15.80
2015,07,19,02,31,15.80
2015,07,19,02,32,15.80
2015,07,19,02,33,15.80
2015,07,19,02,34,15.80
2015,07,19,02,35,15.80
2015,07,19,02,36,15.80
2015,07,19,02,37,15.80
2015,07,19,02,38,15.80
2015,07,19,02,39,15.80
2015,07,19,02,40,15.80
2015,07,19,02,41,15.80
2015,07,19,02,42,15.70
2015,07,19,02,43,15.70
2015,07,19,02,44,15.70
2015,07,19,02,45,15.70
2015,07,19,02,46,15.70
2015,07,19,02,47,15.70
2015,07,19,02,48,15.70
2015,07,19,02,49,15.60
2015,07,19,02,50,15.60
2015,07,19,02,51,15.60
2015,07,19,02,52,15.60
2015,07,19,02,53,15.60
2015,07,19,02,54,15.60
2015,07,19,02,55,15.50
2015,07,19,02,56,15.50
2015,07,19,02,57,15.50
2015,07,19,02,58,15.40
2015,07,19,02,59,15.40
2015,07,19,03,00,15.40
2015,07,19,03,01,15.40
2015,07,19,03,02,15.40
2015,07,19,03,03,15.30
2015,07,19,03,04,15.30
2015,07,19,03,05,15.30
2015,07,19,03,06,15.30
2015,07,19,03,07,15.30
2015,07,19,03,08,15.30
2015,07,19,03,09,15.20
2015,07,19,03,10,15.20
2015,07,19,03,11,15.20
2015,07,19,03,12,15.20
2015,07,19,03,13,15.20
2015,07,19,03,14,15.20
2015,07,19,03,15,15.10
2015,07,19,03,16,15.10
2015,07,19,03,17,15.10
2015,07,19,03,18,15.10
2015,07,19,03,19,15.10
2015,07,19,03,20,15.10
2015,07,19,03,21,15.10
2015,07,19,03,22,15.10
2015,07,19,03,23,15.00
2015,07,19,03,24,15.00
2015,07,19,03,25,15.00
2015,07,19,03,26,15.00
2015,07,19,03,27,15.00
2015,07,19,03,28,14.90
2015,07,19,03,29,14.90
2015,07,19,03,30,14.90
2015,07,19,03,31,14.90
2015,07,19,03,32,14.90
2015,07,19,03,33,14.90
2015,07,19,03,34,14.90
2015,07,19,03,35,14.90
2015,07,19,03,36,14.80
2015,07,19,03,37,14.80
2015,07,19,03,38,14.90
2015,07,19,03,39,14.90
2015,07,19,03,40,14.90
2015,07,19,03,41,14.80
2015,07,19,03,42,14.90
2015,07,19,03,43,14.90
2015,07,19,03,44,14.90
2015,07,19,03,45,14.80
2015,07,19,03,46,14.80
2015,07,19,03,47,14.90
2015,07,19,03,48,14.90
2015,07,19,03,49,14.90
2015,07,19,03,50,14.90
2015,07,19,03,51,14.80
2015,07,19,03,52,14.80
2015,07,19,03,53,14.80
2015,07,19,03,54,14.80
2015,07,19,03,55,14.80
2015,07,19,03,56,14.80
2015,07,19,03,57,14.80
2015,07,19,03,58,14.90
2015,07,19,03,59,14.90
2015,07,19,04,00,14.90
2015,07,19,04,01,14.90
2015,07,19,04,02,15.00
2015,07,19,04,03,15.00
2015,07,19,04,04,15.00
2015,07,19,04,05,15.00
2015,07,19,04,06,15.10
2015,07,19,04,07,15.00
2015,07,19,05,02,14.60
2015,07,19,05,03,14.60
2015,07,19,05,04,14.60
2015,07,19,05,05,14.60
2015,07,19,05,06,14.60
2015,07,19,05,07,14.50
2015,07,19,05,08,14.50
2015,07,19,05,09,14.50
2015,07,19,05,10,14.50
2015,07,19,05,11,14.50
2015,07,19,05,12,14.50
2015,07,19,05,13,14.60
2015,07,19,05,14,14.60
2015,07,19,05,15,14.60
2015,07,19,05,16,14.60
2015,07,19,05,17,14.60
2015,07,19,05,18,14.60
2015,07,19,05,19,14.60
2015,07,19,05,20,14.60
2015,07,19,05,21,14.60
2015,07,19,05,22,14.60
2015,07,19,05,23,14.60
2015,07,19,05,24,14.50
2015,07,19,05,25,14.50
2015,07,19,05,26,14.50
2015,07,19,05,27,14.50
2015,07,19,05,28,14.50
2015,07,19,05,29,14.50
2015,07,19,05,30,14.50
2015,07,19,05,31,14.40
2015,07,19,05,32,14.40
2015,07,19,05,33,14.40
2015,07,19,05,34,14.40
2015,07,19,05,35,14.30
2015,07,19,05,36,14.30
2015,07,19,05,37,14.30
2015,07,19,05,38,14.30
2015,07,19,05,39,14.30
2015,07,19,05,40,14.30
2015,07,19,05,41,14.30
2015,07,19,05,42,14.30
2015,07,19,05,43,14.30
2015,07,19,05,44,14.30
2015,07,19,05,45,14.30
2015,07,19,05,46,14.30
2015,07,19,05,47,14.20
2015,07,19,05,48,14.20
2015,07,19,05,49,14.20
2015,07,19,05,50,14.20
2015,07,19,05,51,14.20
2015,07,19,05,52,14.20
2015,07,19,05,53,14.10
2015,07,19,05,54,14.10
2015,07,19,05,55,14.10
2015,07,19,05,56,14.10
2015,07,19,05,57,14.10
2015,07,19,05,58,14.10
2015,07,19,05,59,14.10
2015,07,19,06,00,14.10
2015,07,19,06,01,14.10
2015,07,19,06,02,14.10
2015,07,19,06,03,14.10
2015,07,19,06,04,14.10
2015,07,19,06,05,14.10
2015,07,19,06,06,14.10
2015,07,19,06,07,14.10
2015,07,19,06,08,14.10
2015,07,19,06,09,14.10
2015,07,19,06,10,14.10
2015,07,19,06,11,14.10
2015,07,19,06,12,14.10
2015,07,19,06,13,14.10
2015,07,19,06,14,14.20
2015,07,19,06,15,14.20
2015,07,19,06,16,14.20
2015,07,19,06,17,14.20
2015,07,19,06,18,14.20
2015,07,19,06,19,14.20
2015,07,19,06,20,14.20
2015,07,19,06,21,14.30
2015,07,19,06,22,14.30
2015,07,19,06,23,14.30
2015,07,19,06,24,14.40
2015,07,19,06,25,14.50
2015,07,19,06,26,14.50
2015,07,19,06,27,14.60
2015,07,19,06,28,14.70
2015,07,19,06,29,14.70
2015,07,19,06,30,14.70
2015,07,19,06,31,14.80
2015,07,19,06,32,14.80
2015,07,19,06,33,14.80
2015,07,19,06,34,14.90
2015,07,19,06,35,14.90
2015,07,19,06,36,14.90
2015,07,19,06,37,14.90
2015,07,19,06,38,15.00
2015,07,19,06,39,15.00
2015,07,19,06,40,15.10
2015,07,19,06,41,15.10
2015,07,19,06,42,15.10
2015,07,19,06,43,15.10
2015,07,19,06,44,15.10
2015,07,19,06,45,15.10
2015,07,19,06,46,15.10
2015,07,19,06,47,15.10
2015,07,19,06,48,15.10
2015,07,19,06,49,15.00
2015,07,19,06,50,15.00
2015,07,19,06,51,15.00
2015,07,19,06,52,15.00
2015,07,19,06,53,14.90
2015,07,19,06,54,14.90
2015,07,19,06,55,15.00
2015,07,19,06,56,15.00
2015,07,19,06,57,15.00
2015,07,19,06,58,15.00
2015,07,19,06,59,15.00
2015,07,19,07,00,15.00
2015,07,19,07,01,15.00
2015,07,19,07,02,14.90
2015,07,19,07,03,14.90
2015,07,19,07,04,14.90
2015,07,19,07,05,14.90
2015,07,19,07,06,14.90
2015,07,19,07,07,14.90
2015,07,19,07,08,15.00
2015,07,19,07,09,15.00
2015,07,19,07,10,15.00
2015,07,19,07,11,15.10
2015,07,19,07,12,15.10
2015,07,19,07,13,15.20
2015,07,19,07,14,15.20
2015,07,19,07,15,15.30
2015,07,19,07,16,15.40
2015,07,19,07,17,15.40
2015,07,19,07,18,15.50
2015,07,19,07,19,15.60
2015,07,19,07,20,15.60
2015,07,19,07,21,15.70
2015,07,19,07,22,15.70
2015,07,19,07,23,15.80
2015,07,19,07,24,15.80
2015,07,19,07,25,15.90
2015,07,19,07,26,15.90
2015,07,19,07,27,16.00
2015,07,19,07,28,16.00
2015,07,19,07,29,16.10
2015,07,19,07,30,16.10
2015,07,19,07,31,16.20
2015,07,19,07,32,16.30
2015,07,19,07,33,16.30
2015,07,19,07,34,16.40
2015,07,19,07,35,16.50
2015,07,19,07,36,16.50
2015,07,19,07,37,16.60
2015,07,19,07,38,16.70
2015,07,19,07,39,16.70
2015,07,19,07,40,16.80
2015,07,19,07,41,16.80
2015,07,19,07,42,16.80
2015,07,19,07,43,16.90
2015,07,19,07,44,16.90
2015,07,19,07,45,17.00
2015,07,19,07,46,17.00
2015,07,19,07,47,17.10
2015,07,19,07,48,17.20
2015,07,19,07,49,17.20
2015,07,19,07,50,17.30
2015,07,19,07,51,17.40
2015,07,19,07,52,17.50
2015,07,19,07,53,17.60
2015,07,19,07,54,17.60
2015,07,19,07,55,17.70
2015,07,19,07,56,17.70
2015,07,19,07,57,17.70
2015,07,19,07,58,17.70
2015,07,19,07,59,17.70
2015,07,19,08,00,17.70
2015,07,19,08,01,17.80
2015,07,19,08,02,17.80
2015,07,19,08,03,17.90
2015,07,19,08,04,17.90
2015,07,19,08,05,18.00
2015,07,19,08,06,18.00
2015,07,19,08,07,18.10
2015,07,19,08,08,18.00
2015,07,19,08,09,17.90
2015,07,19,08,10,17.90
2015,07,19,08,11,17.80
2015,07,19,08,12,17.80
2015,07,19,08,13,17.80
2015,07,19,08,14,17.80
2015,07,19,08,15,17.70
2015,07,19,08,16,17.60
2015,07,19,08,17,17.60
2015,07,19,08,18,17.60
2015,07,19,08,19,17.60
2015,07,19,08,20,17.60
2015,07,19,08,21,17.70
2015,07,19,08,22,17.70
2015,07,19,08,23,17.70
2015,07,19,08,24,17.70
2015,07,19,08,25,17.70
2015,07,19,08,26,17.60
2015,07,19,08,27,17.50
2015,07,19,08,28,17.30
2015,07,19,08,29,17.30
2015,07,19,08,30,17.30
2015,07,19,08,31,17.30
2015,07,19,08,32,17.40
2015,07,19,08,33,17.40
2015,07,19,08,34,17.50
2015,07,19,08,35,17.50
2015,07,19,08,36,17.50
2015,07,19,08,37,17.50
2015,07,19,08,38,17.40
2015,07,19,08,39,17.40
2015,07,19,08,40,17.40
2015,07,19,08,41,17.50
2015,07,19,08,42,17.50
2015,07,19,08,43,17.50
2015,07,19,08,44,17.40
2015,07,19,08,45,17.40
2015,07,19,08,46,17.30
2015,07,19,08,47,17.20
2015,07,19,08,48,17.20
2015,07,19,08,49,17.20
2015,07,19,08,50,17.20
2015,07,19,08,51,17.20
2015,07,19,08,52,17.20
2015,07,19,08,53,17.30
2015,07,19,08,54,17.30
2015,07,19,08,55,17.30
2015,07,19,08,56,17.20
2015,07,19,08,57,17.20
2015,07,19,08,58,17.20
2015,07,19,08,59,17.20
2015,07,19,09,00,17.30
2015,07,19,09,01,17.40
2015,07,19,09,02,17.40
2015,07,19,09,03,17.40
2015,07,19,09,04,17.40
2015,07,19,09,05,17.30
2015,07,19,09,06,17.30
2015,07,19,09,07,17.20
2015,07,19,09,08,17.10
2015,07,19,09,09,17.00
2015,07,19,09,10,16.90
2015,07,19,09,11,16.80
2015,07,19,09,12,16.80
2015,07,19,09,13,16.70
2015,07,19,09,14,16.70
2015,07,19,09,15,16.60
2015,07,19,09,16,16.60
2015,07,19,09,17,16.60
2015,07,19,09,18,16.60
2015,07,19,09,19,16.60
2015,07,19,09,20,16.60
2015,07,19,09,21,16.60
2015,07,19,09,22,16.50
2015,07,19,09,23,16.50
2015,07,19,09,24,16.60
2015,07,19,09,25,16.70
2015,07,19,09,26,16.90
2015,07,19,09,27,17.00
2015,07,19,09,28,17.10
2015,07,19,09,29,17.20
2015,07,19,09,30,17.20
2015,07,19,09,31,17.20
2015,07,19,09,32,17.20
2015,07,19,09,33,17.20
2015,07,19,09,34,17.20
2015,07,19,09,35,17.20
2015,07,19,09,36,17.20
2015,07,19,09,37,17.30
2015,07,19,09,38,17.30
2015,07,19,09,39,17.30
2015,07,19,09,40,17.40
2015,07,19,09,41,17.50
2015,07,19,09,42,17.50
2015,07,19,09,43,17.60
2015,07,19,09,44,17.70
2015,07,19,09,45,17.70
2015,07,19,09,46,17.80
2015,07,19,09,47,17.80
2015,07,19,09,48,17.80
2015,07,19,09,49,17.70
2015,07,19,09,50,17.70
2015,07,19,09,51,17.70
2015,07,19,09,52,17.80
2015,07,19,09,53,17.80
2015,07,19,09,54,17.80
2015,07,19,09,55,17.90
2015,07,19,09,56,18.00
2015,07,19,09,57,18.10
2015,07,19,09,58,18.10
2015,07,19,09,59,18.10
2015,07,19,10,00,18.20
2015,07,19,10,01,18.20
2015,07,19,10,02,18.20
2015,07,19,10,03,18.20
2015,07,19,10,04,18.10
2015,07,19,10,05,18.10
2015,07,19,10,06,18.00
2015,07,19,10,07,18.00
2015,07,19,10,08,17.90
2015,07,19,10,09,18.00
2015,07,19,10,10,18.00
2015,07,19,10,11,18.00
2015,07,19,10,12,18.10
2015,07,19,10,13,18.10
2015,07,19,10,14,18.10
2015,07,19,10,15,18.20
2015,07,19,10,16,18.20
2015,07,19,10,17,18.30
2015,07,19,10,18,18.30
2015,07,19,10,19,18.40
2015,07,19,10,20,18.40
2015,07,19,10,21,18.50
2015,07,19,10,22,18.50
2015,07,19,10,23,18.60
2015,07,19,10,24,18.60
2015,07,19,10,25,18.60
2015,07,19,10,26,18.60
2015,07,19,10,27,18.60
2015,07,19,10,28,18.60
2015,07,19,10,29,18.60
2015,07,19,10,30,18.60
2015,07,19,10,31,18.60
2015,07,19,10,32,18.70
2015,07,19,10,33,18.60
2015,07,19,10,34,18.60
2015,07,19,10,35,18.50
2015,07,19,10,36,18.50
2015,07,19,10,37,18.60
2015,07,19,10,38,18.60
2015,07,19,10,39,18.70
2015,07,19,10,40,18.80
2015,07,19,10,41,18.80
2015,07,19,10,42,18.90
2015,07,19,10,43,18.90
2015,07,19,10,44,18.90
2015,07,19,10,45,18.90
2015,07,19,10,46,19.00
2015,07,19,10,47,19.00
2015,07,19,10,48,19.10
2015,07,19,10,49,19.20
2015,07,19,10,50,19.30
2015,07,19,10,51,19.30
2015,07,19,10,52,19.20
2015,07,19,10,53,19.20
2015,07,19,10,54,19.10
2015,07,19,10,55,19.10
2015,07,19,10,56,19.10
2015,07,19,10,57,19.10
2015,07,19,10,58,19.20
2015,07,19,10,59,19.30
2015,07,19,11,00,19.30
2015,07,19,11,01,19.40
2015,07,19,11,02,19.40
2015,07,19,11,03,19.40
2015,07,19,11,04,19.40
2015,07,19,11,05,19.40
2015,07,19,11,06,19.40
2015,07,19,11,07,19.50
2015,07,19,11,08,19.50
2015,07,19,11,09,19.50
2015,07,19,11,10,19.50
2015,07,19,11,11,19.50
2015,07,19,11,12,19.50
2015,07,19,11,13,19.60
2015,07,19,11,14,19.60
2015,07,19,11,15,19.60
2015,07,19,11,16,19.60
2015,07,19,11,17,19.60
2015,07,19,11,18,19.60
2015,07,19,11,19,19.70
2015,07,19,11,20,19.70
2015,07,19,11,21,19.70
2015,07,19,11,22,19.70
2015,07,19,11,23,19.80
2015,07,19,11,24,19.90
2015,07,19,11,25,19.90
2015,07,19,11,26,19.90
2015,07,19,11,27,20.00
2015,07,19,11,28,20.10
2015,07,19,11,29,20.10
2015,07,19,11,30,20.20
2015,07,19,11,31,20.20
2015,07,19,11,32,20.20
2015,07,19,11,33,20.10
2015,07,19,11,34,20.10
2015,07,19,11,35,20.20
2015,07,19,11,36,20.10
2015,07,19,11,37,20.10
2015,07,19,11,38,20.00
2015,07,19,11,39,20.00
2015,07,19,11,40,20.00
2015,07,19,11,41,20.10
2015,07,19,11,42,20.10
2015,07,19,11,43,20.20
2015,07,19,11,44,20.10
2015,07,19,11,45,20.10
2015,07,19,11,46,20.20
2015,07,19,11,47,20.20
2015,07,19,11,48,20.20
2015,07,19,11,49,20.30
2015,07,19,11,50,20.40
2015,07,19,11,51,20.40
2015,07,19,11,52,20.50
2015,07,19,11,53,20.40
2015,07,19,11,54,20.30
2015,07,19,11,55,20.20
2015,07,19,11,56,20.20
2015,07,19,11,57,20.20
2015,07,19,11,58,20.20
2015,07,19,11,59,20.30
2015,07,19,12,00,20.40
2015,07,19,12,01,20.40
2015,07,19,12,02,20.50
2015,07,19,12,03,20.50
2015,07,19,12,04,20.50
2015,07,19,12,05,20.50
2015,07,19,12,06,20.50
2015,07,19,12,07,20.50
2015,07,19,12,08,20.40
2015,07,19,12,09,20.20
2015,07,19,12,10,20.20
2015,07,19,12,11,20.10
2015,07,19,12,12,20.10
2015,07,19,12,13,20.10
2015,07,19,12,14,20.10
2015,07,19,12,15,20.10
2015,07,19,12,16,20.10
2015,07,19,12,17,20.00
2015,07,19,12,18,20.00
2015,07,19,12,19,20.00
2015,07,19,12,20,20.00
2015,07,19,12,21,19.90
2015,07,19,12,22,19.90
2015,07,19,12,23,19.90
2015,07,19,12,24,20.00
2015,07,19,12,25,20.00
2015,07,19,12,26,20.00
2015,07,19,12,27,20.00
2015,07,19,12,28,20.00
2015,07,19,12,29,20.10
2015,07,19,12,30,20.20
2015,07,19,12,31,20.30
2015,07,19,12,32,20.30
2015,07,19,12,33,20.20
2015,07,19,12,34,20.20
2015,07,19,12,35,20.20
2015,07,19,12,36,20.30
2015,07,19,12,37,20.50
2015,07,19,12,38,20.60
2015,07,19,12,39,20.70
2015,07,19,12,40,20.70
2015,07,19,12,41,20.70
2015,07,19,12,42,20.70
2015,07,19,12,43,20.70
2015,07,19,12,44,20.60
2015,07,19,12,45,20.50
2015,07,19,12,46,20.50
2015,07,19,12,47,20.50
2015,07,19,12,48,20.60
2015,07,19,12,49,20.60
2015,07,19,12,50,20.70
2015,07,19,12,51,20.60
2015,07,19,12,52,20.60
2015,07,19,12,53,20.60
2015,07,19,12,54,20.60
2015,07,19,12,55,20.60
2015,07,19,12,56,20.60
2015,07,19,12,57,20.50
2015,07,19,12,58,20.50
2015,07,19,12,59,20.50
2015,07,19,13,00,20.50
2015,07,19,13,01,20.50
2015,07,19,13,02,20.50
2015,07,19,13,03,20.60
2015,07,19,13,04,20.70
2015,07,19,13,05,20.70
2015,07,19,13,06,20.70
2015,07,19,13,07,20.70
2015,07,19,13,08,20.60
2015,07,19,13,09,20.60
2015,07,19,13,10,20.60
2015,07,19,13,11,20.60
2015,07,19,13,12,20.70
2015,07,19,13,13,20.70
2015,07,19,13,14,20.70
2015,07,19,13,15,20.70
2015,07,19,13,16,20.60
2015,07,19,13,17,20.60
2015,07,19,13,18,20.60
2015,07,19,13,19,20.50
2015,07,19,13,20,20.50
2015,07,19,13,21,20.50
2015,07,19,13,22,20.50
2015,07,19,13,23,20.50
2015,07,19,13,24,20.60
2015,07,19,13,25,20.50
2015,07,19,13,26,20.40
2015,07,19,13,27,20.20
2015,07,19,13,28,20.00
2015,07,19,13,29,19.90
2015,07,19,13,30,19.90
2015,07,19,13,31,19.90
2015,07,19,13,32,20.00
2015,07,19,13,33,20.00
2015,07,19,13,34,20.10
2015,07,19,13,35,20.10
2015,07,19,13,36,20.20
2015,07,19,13,37,20.30
2015,07,19,13,38,20.40
2015,07,19,13,39,20.40
2015,07,19,13,40,20.50
2015,07,19,13,41,20.60
2015,07,19,13,42,20.60
2015,07,19,13,43,20.70
2015,07,19,13,44,20.70
2015,07,19,13,45,20.60
2015,07,19,13,46,20.60
2015,07,19,13,47,20.50
2015,07,19,13,48,20.40
2015,07,19,13,49,20.40
2015,07,19,13,50,20.40
2015,07,19,13,51,20.30
2015,07,19,13,52,20.10
2015,07,19,13,53,19.80
2015,07,19,13,54,19.70
2015,07,19,13,55,19.60
2015,07,19,13,56,19.60
2015,07,19,13,57,19.60
2015,07,19,13,58,19.60
2015,07,19,13,59,19.50
2015,07,19,14,00,19.40
2015,07,19,14,01,19.30
2015,07,19,14,02,19.20
2015,07,19,14,03,19.20
2015,07,19,14,04,19.10
2015,07,19,14,05,19.10
2015,07,19,14,06,19.10
2015,07,19,14,07,19.10
2015,07,19,14,08,19.10
2015,07,19,14,09,19.20
2015,07,19,14,10,19.30
2015,07,19,14,11,19.30
2015,07,19,14,12,19.30
2015,07,19,14,13,19.30
2015,07,19,14,14,19.30
2015,07,19,14,15,19.40
2015,07,19,14,16,19.30
2015,07,19,14,17,19.20
2015,07,19,14,18,19.10
2015,07,19,14,19,19.00
2015,07,19,14,20,18.90
2015,07,19,14,21,18.90
2015,07,19,14,22,18.80
2015,07,19,14,23,18.80
2015,07,19,14,24,18.60
2015,07,19,14,25,18.50
2015,07,19,14,26,18.40
2015,07,19,14,27,18.40
2015,07,19,14,28,18.40
2015,07,19,14,29,18.40
2015,07,19,14,30,18.40
2015,07,19,14,31,18.40
2015,07,19,14,32,18.50
2015,07,19,14,33,18.50
2015,07,19,14,34,18.60
2015,07,19,14,35,18.70
2015,07,19,14,36,18.70
2015,07,19,14,37,18.70
2015,07,19,14,38,18.60
2015,07,19,14,39,18.60
2015,07,19,14,40,18.60
2015,07,19,14,41,18.60
2015,07,19,14,42,18.60
2015,07,19,14,43,18.60
2015,07,19,14,44,18.50
2015,07,19,14,45,18.50
2015,07,19,14,46,18.50
2015,07,19,14,47,18.50
2015,07,19,14,48,18.50
2015,07,19,14,49,18.50
2015,07,19,14,50,18.60
2015,07,19,14,51,18.50
2015,07,19,14,52,18.40
2015,07,19,14,53,18.40
2015,07,19,14,54,18.50
2015,07,19,14,55,18.40
2015,07,19,14,56,18.40
2015,07,19,14,57,18.40
2015,07,19,14,58,18.40
2015,07,19,14,59,18.40
2015,07,19,15,00,18.40
2015,07,19,15,01,18.30
2015,07,19,15,02,18.20
2015,07,19,15,03,18.10
2015,07,19,15,04,18.00
2015,07,19,15,05,17.90
2015,07,19,15,06,17.90
2015,07,19,15,07,18.00
2015,07,19,15,08,18.00
2015,07,19,15,09,18.10
2015,07,19,15,10,18.10
2015,07,19,15,11,18.10
2015,07,19,15,12,18.10
2015,07,19,15,13,18.10
2015,07,19,15,14,18.10
2015,07,19,15,15,18.20
2015,07,19,15,16,18.20
2015,07,19,15,17,18.30
2015,07,19,15,18,18.40
2015,07,19,15,19,18.50
2015,07,19,15,20,18.70
2015,07,19,15,21,18.80
2015,07,19,15,22,18.90
2015,07,19,15,23,19.00
2015,07,19,15,24,19.10
2015,07,19,15,25,19.20
2015,07,19,15,26,19.20
2015,07,19,15,27,19.20
2015,07,19,15,28,19.30
2015,07,19,15,29,19.30
2015,07,19,15,30,19.30
2015,07,19,15,31,19.30
2015,07,19,15,32,19.30
2015,07,19,15,33,19.40
2015,07,19,15,34,19.40
2015,07,19,15,35,19.50
2015,07,19,15,36,19.60
2015,07,19,15,37,19.70
2015,07,19,15,38,19.80
2015,07,19,15,39,19.80
2015,07,19,15,40,19.80
2015,07,19,15,41,19.80
2015,07,19,15,42,19.80
2015,07,19,15,43,19.70
2015,07,19,15,44,19.60
2015,07,19,15,45,19.50
2015,07,19,15,46,19.40
2015,07,19,15,47,19.40
2015,07,19,15,48,19.40
2015,07,19,15,49,19.40
2015,07,19,15,50,19.50
2015,07,19,15,51,19.50
2015,07,19,15,52,19.60
2015,07,19,15,53,19.60
2015,07,19,15,54,19.70
2015,07,19,15,55,19.70
2015,07,19,15,56,19.80
2015,07,19,15,57,19.80
2015,07,19,15,58,19.80
2015,07,19,15,59,19.80
2015,07,19,16,00,19.90
2015,07,19,16,01,19.90
2015,07,19,16,02,20.00
2015,07,19,16,03,20.10
2015,07,19,16,04,20.20
2015,07,19,16,05,20.30
2015,07,19,16,06,20.40
2015,07,19,16,07,20.40
2015,07,19,16,08,20.50
2015,07,19,16,09,20.60
2015,07,19,16,10,20.70
2015,07,19,16,11,20.80
2015,07,19,16,12,20.90
2015,07,19,16,13,21.00
2015,07,19,16,14,21.10
2015,07,19,16,15,21.10
2015,07,19,16,16,21.20
2015,07,19,16,17,21.10
2015,07,19,16,18,21.10
2015,07,19,16,19,21.10
2015,07,19,16,20,21.10
2015,07,19,16,21,21.10
2015,07,19,16,22,21.10
2015,07,19,16,23,21.10
2015,07,19,16,24,21.10
2015,07,19,16,25,21.10
2015,07,19,16,26,21.10
2015,07,19,16,27,21.10
2015,07,19,16,28,21.10
2015,07,19,16,29,21.10
2015,07,19,16,30,21.10
2015,07,19,16,31,21.20
2015,07,19,16,32,21.20
2015,07,19,16,33,21.30
2015,07,19,16,34,21.30
2015,07,19,16,35,21.40
2015,07,19,16,36,21.50
2015,07,19,16,37,21.60
2015,07,19,16,38,21.70
2015,07,19,16,39,21.70
2015,07,19,16,40,21.80
2015,07,19,16,41,21.90
2015,07,19,16,42,21.90
2015,07,19,16,43,22.00
2015,07,19,16,44,22.00
2015,07,19,16,45,22.10
2015,07,19,16,46,22.20
2015,07,19,16,47,22.20
2015,07,19,16,48,22.20
2015,07,19,16,49,22.20
2015,07,19,16,50,22.20
2015,07,19,16,51,22.20
2015,07,19,16,52,22.20
2015,07,19,16,53,22.30
2015,07,19,16,54,22.40
2015,07,19,16,55,22.50
2015,07,19,16,56,22.60
2015,07,19,16,57,22.70
2015,07,19,16,58,22.80
2015,07,19,16,59,22.80
2015,07,19,17,00,22.80
2015,07,19,17,01,22.90
2015,07,19,17,02,22.90
2015,07,19,17,03,22.90
2015,07,19,17,04,22.90
2015,07,19,17,05,22.90
2015,07,19,17,06,23.00
2015,07,19,17,07,23.10
2015,07,19,17,08,23.20
2015,07,19,17,09,23.30
2015,07,19,17,10,23.40
2015,07,19,17,11,23.40
2015,07,19,17,12,23.40
2015,07,19,17,13,23.40
2015,07,19,17,14,23.40
2015,07,19,17,15,23.40
2015,07,19,17,16,23.30
2015,07,19,17,17,23.30
2015,07,19,17,18,23.20
2015,07,19,17,19,23.20
2015,07,19,17,20,23.10
2015,07,19,17,21,23.10
2015,07,19,17,22,23.10
2015,07,19,17,23,23.10
2015,07,19,17,24,23.10
2015,07,19,17,25,23.10
2015,07,19,17,26,23.10
2015,07,19,17,27,23.10
2015,07,19,17,28,23.10
2015,07,19,17,29,23.10
2015,07,19,17,30,23.00
2015,07,19,17,31,22.90
2015,07,19,17,32,22.90
2015,07,19,17,33,22.90
2015,07,19,17,34,22.80
2015,07,19,17,35,22.80
2015,07,19,17,36,22.80
2015,07,19,17,37,22.70
2015,07,19,17,38,22.70
2015,07,19,17,39,22.70
2015,07,19,17,40,22.70
2015,07,19,17,41,22.70
2015,07,19,17,42,22.80
2015,07,19,17,43,22.70
2015,07,19,17,44,22.70
2015,07,19,17,45,22.70
2015,07,19,17,46,22.70
2015,07,19,17,47,22.70
2015,07,19,17,48,22.70
2015,07,19,17,49,22.70
2015,07,19,17,50,22.70
2015,07,19,17,51,22.70
2015,07,19,17,52,22.80
2015,07,19,17,53,22.80
2015,07,19,17,54,22.80
2015,07,19,17,55,22.80
2015,07,19,17,56,22.90
2015,07,19,17,57,22.90
2015,07,19,17,58,22.90
2015,07,19,17,59,22.90
2015,07,19,18,00,22.90
2015,07,19,18,01,22.90
2015,07,19,18,02,22.90
2015,07,19,18,03,22.90
2015,07,19,18,04,22.90
2015,07,19,18,05,22.90
2015,07,19,18,06,22.90
2015,07,19,18,07,22.90
2015,07,19,18,08,22.90
2015,07,19,18,09,22.90
2015,07,19,18,10,22.90
2015,07,19,18,11,22.80
2015,07,19,18,12,22.70
2015,07,19,18,13,22.60